Location: LDNL
(36.4545°S, 141.6685°E)
Time: 11:25:36
(UTC+10:00)

Explorer 7 - Pass Details

Date: 13 August 2022
Orbit: 482 x 668 km, 50.3° (Epoch: 26 September)

Event Time Altitude Azimuth Distance (km) Brightness Sun altitude
Rises 15:59:44 0° 7° (N) 2,991 11.0 20.2°
Maximum altitude 16:05:04 10° 56° (NE) 2,099 9.6 19.4°
Drops below altitude 10° 16:05:42 10° 63° (ENE) 2,115 9.6 19.3°
Sets 16:10:25 0° 104° (ESE) 3,005 10.0 18.5°
